SCP
0 0 0 0 0 0 0 0 0 0 0 0 0 0 0 0 0 0 0 0 0 0 0 0 0 0 0 0 0 0 0 0 0 0 0 0 0 0 0 0 0 0 0
0 0 0 0 0 0 0 0 0 0 0 0 0 0 0 0 0 0 0 0 0 0 0 0 0 0 0 0 0 0 0 0 0 0 0 0 0 0 0 0 0 0 0
0 0 0 0 0 0 0 0 0 0 0 0 0 0 0 0 0 0 0 0 0 0 0 0 0 0 0 0 0 0 0 0 0 0 0 0 0 0 0 0 0 0 0
0 0 0 0 0 0 0 0 0 0 0 0 0 0 0 0 0 0 0 0 0 0 0 0 0 0 0 0 0 0 0 0 0 0 0 0 0 0 0 0 0 0 0
0 0 0 0 0 0 0 0 0 0 0 0 0 0 0 0 0 0 0 0 0 0 0 0 0 0 0 0 0 0 0 0 0 0 0 0 0 0 0 0 0 0 0
0 0 0 0 0 0 0 0 0 0 0 0 0 0 0 0 0 0 0 0 0 0 0 0 0 0 0 0 0 0 0 0 0 0 0 0 0 0 0 0 0 0 0
0 0 0 0 0 0 0 0 0 0 0 0 0 0 0 0 0 0 0 0 0 0 0 0 0 0 0 0 0 0 0 0 0 0 0 0 0 0 0 0 0 0 0
0 0 0 0 0 0 0 0 0 0 0 0 0 0 0 0 0 0 0 0 0 0 0 0 0 0 0 0 0 0 0 0 0 0 0 0 0 0 0 0 0 0 0
0 0 0 0 0 0 0 0 0 0 0 0 0 0 0 0 0 0 0 0 0 0 0 0 0 0 0 0 0 0 0 0 0 0 0 0 0 0 0 0 0 0 0
0 0 0 0 0 0 0 0 0 0 0 0 0 0 0 0 0 0 0 0 0 0 0 0 0 0 0 0 0 0 0 0 0 0 0 0 0 0 0 0 0 0 0
0 0 0 0 0 0 0 0 0 0 0 0 0 0 0 0 0 0 0 0 0 0 0 0 0 0 0 0 0 0 0 0 0 0 0 0 0 0 0 0 0 0 0
0 0 0 0 0 0 0 0 0 0 0 0 0 0 0 0 0 0 0 0 0 0 0 0 0 0 0 0 0 0 0 0 0 0 0 0 0 0 0 0 0 0 0
0 0 0 0 0 0 0 0 0 0 0 0 0 0 0 0 0 0 0 0 0 0 0 0 0 0 0 0 0 0 0 0 0 0 0 0 0 0 0 0 0 0 0
0 0 0 0 0 0 0 0 0 0 0 0 0 0 0 0 0 0 0 0 0 0 0 0 0 0 0 0 0 0 0 0 0 0 0 0 0 0 0 0 0 0 0
0 0 0 0 0 0 0 0 0 0 0 0 0 0 0 0 0 0 0 0 0 0 0 0 0 0 0 0 0 0 0 0 0 0 0 0 0 0 0 0 0 0 0
0 0 0 0 0 0 0 0 0 0 0 0 0 0 0 0 0 0 0 0 0 0 0 0 0 0 0 0 0 0 0 0 0 0 0 0 0 0 0 0 0 0 0
0 0 0 0 0 0 0 0 0 0 0 0 0 0 0 0 0 0 0 0 0 0 0 0 0 0 0 0 0 0 0 0 0 0 0 0 0 0 0 0 0 0 0
0 0 0 0 0 0 0 0 0 0 0 0 0 0 0 0 0 0 0 0 0 0 0 0 0 0 0 0 0 0 0 0 0 0 0 0 0 0 0 0 0 0 0
0 0 0 0 0 0 0 0 0 0 0 0 0 0 0 0 0 0 0 0 0 0 0 0 0 0 0 0 0 0 0 0 0 0 0 0 0 0 0 0 0 0 0
0 0 0 0 0 0 0 0 0 0 0 0 0 0 0 0 0 0 0 0 0 0 0 0 0 0 0 0 0 0 0 0 0 0 0 0 0 0 0 0 0 0 0
0 0 0 0 0 0 0 0 0 0 0 0 0 0 0 0 0 0 0 0 0 0 0 0 0 0 0 0 0 0 0 0 0 0 0 0 0 0 0 0 0 0 0
0 0 0 0 0 0 0 0 0 0 0 0 0 0 0 0 0 0 0 0 0 0 0 0 0 0 0 0 0 0 0 0 0 0 0 0 0 0 0 0 0 0 0
0 0 0 0 0 0 0 0 0 0 0 0 0 0 0 0 0 0 0 0 0 0 0 0 0 0 0 0 0 0 0 0 0 0 0 0 0 0 0 0 0 -0 -0
0 0 0 0 0 0 0 0 0 0 0 0 0 0 0 0 0 0 0 0 0 0 0 0 0 0 0 0 0 0 0 0 0 0 0 0 0 0 0 0 0 0 -0
0 0 0 0 0 0 0 0 0 0 0 0 0 0 0 0 0 0 0 0 0 0 0 0 0 0 0 0 0 0 0 0 0 0 0 0 0 0 0 0 0 0 0
1 0 0 0 0 0 0 0 0 0 0 0 0 0 0 0 0 0 0 0 0 0 0 0 0 0 0 0 0 0 0 0 0 0 0 0 0 0 0 0 0 0 0
Wind_Speed
0 0 1 1 1 1 1 1 1 1 1 1 1 2 2 2 2 2 1 5 6 6 7 8 8 8 8 8 7 7 7 7 7 7 7 7 7 7 7 7 7 7 6
1 1 0 0 1 0 0 1 1 1 1 1 1 1 1 2 2 2 2 3 6 6 7 8 8 8 9 9 9 9 8 8 8 8 8 7 7 8 8 8 8 8 8
1 1 0 0 1 0 0 1 1 1 1 1 1 1 1 2 2 3 3 2 3 5 7 7 8 8 9 9 9 9 9 9 8 8 8 8 8 8 8 8 8 8 8
2 1 1 0 1 0 1 1 1 1 1 1 0 0 1 1 2 3 2 2 2 2 4 7 8 8 8 9 8 8 8 8 8 8 8 9 9 9 8 8 9 9 9
2 2 1 0 0 0 0 1 1 1 1 1 0 0 1 1 2 2 3 3 3 3 2 4 6 6 8 9 9 8 8 8 8 8 8 8 8 8 8 8 9 9 9
1 2 1 1 1 1 0 1 1 1 1 1 0 1 1 1 1 1 2 2 2 3 3 3 2 3 6 7 7 8 8 8 8 8 9 9 9 8 8 8 8 7 8
2 2 1 1 1 1 1 2 1 1 1 1 1 1 2 1 0 1 1 1 2 3 2 2 2 2 2 4 4 5 7 7 7 8 8 8 8 7 7 7 8 8 8
1 1 1 1 1 1 1 2 2 1 1 1 2 1 1 2 2 1 0 1 1 1 1 2 2 2 2 2 2 4 5 6 6 7 6 6 6 5 6 7 8 9 9
1 1 1 1 1 2 2 2 3 3 2 1 1 2 2 1 1 2 1 1 1 1 0 1 1 2 2 1 2 2 3 3 4 4 5 4 4 4 4 5 6 6 7
0 1 1 1 1 2 2 3 3 2 3 2 1 1 2 3 2 1 1 1 1 1 1 1 1 1 1 1 1 1 1 2 2 3 3 4 4 4 4 4 5 4 4
1 0 0 1 1 1 2 2 2 2 2 2 2 2 1 1 1 2 1 1 1 1 1 0 0 0 0 0 1 0 1 1 1 1 1 1 1 2 3 3 3 3 3
1 1 0 0 1 1 1 2 2 2 2 2 2 2 2 2 3 3 2 1 0 1 1 1 1 0 0 0 1 2 2 2 3 3 3 3 3 2 2 1 1 1 1
1 1 0 0 0 0 1 1 1 1 2 2 2 2 2 2 2 3 2 2 1 0 1 1 1 1 1 1 1 4 4 5 5 5 5 5 5 5 5 5 5 5 5
1 1 0 0 0 0 0 0 0 0 0 1 1 1 1 1 2 2 3 3 1 0 0 0 1 2 2 2 3 4 4 7 7 7 7 7 6 7 7 8 8 8 8
1 0 0 1 1 1 1 1 1 1 1 0 1 1 1 0 1 1 2 3 3 2 1 0 1 2 2 3 5 4 4 8 8 8 8 8 8 9 9 9 9 9 9
0 1 1 1 1 1 1 2 2 1 2 1 1 2 1 0 0 0 1 1 1 2 2 1 1 1 2 4 6 5 6 9 9 9 9 9 9 9 10 10 9 9 9
1 1 1 1 2 2 2 2 2 2 2 2 2 2 2 1 1 1 1 1 1 2 2 1 2 2 3 4 4 4 4 4 5 9 8 8 9 9 9 9 9 8 9
1 2 2 2 2 2 2 2 2 2 2 2 2 2 2 2 2 1 1 2 2 2 3 3 2 2 2 3 4 4 3 3 3 7 7 7 7 7 7 7 7 7 8
2 2 2 2 2 2 2 2 2 3 3 2 2 2 2 2 2 2 2 2 2 2 2 4 3 2 2 2 3 3 4 3 3 4 5 5 6 5 5 6 6 6 6
3 2 2 2 2 2 2 2 3 3 3 2 2 2 2 2 2 2 2 3 3 4 4 4 3 2 2 2 2 2 2 2 2 3 4 4 5 5 5 6 5 5 5
3 2 3 3 2 2 2 2 3 3 3 3 3 3 3 4 5 3 3 3 4 3 3 4 3 2 2 2 1 1 2 1 2 2 2 2 2 2 3 4 4 5 4
3 3 3 2 2 2 3 4 4 3 3 3 3 3 4 5 6 7 7 7 6 4 4 3 2 3 2 2 2 2 2 1 0 1 1 1 1 1 1 1 2 3 2
2 3 2 3 3 3 4 5 6 4 3 3 3 3 3 4 5 5 7 8 7 6 4 3 3 2 2 2 3 3 2 1 1 0 1 1 1 1 1 1 1 1 1
2 2 2 2 3 3 4 5 6 5 4 4 3 3 4 3 3 4 5 5 5 4 3 2 2 1 2 2 3 3 2 2 2 1 1 0 0 1 1 1 1 2 1
2 2 2 3 2 2 4 5 5 4 4 4 3 3 3 3 4 5 5 5 4 4 5 6 5 4 4 4 4 4 3 2 1 0 0 0 0 1 1 1 1 2 2
3 3 3 2 2 2 3 4 4 3 4 3 3 3 4 3 4 4 4 4 3 2 2 3 4 5 4 4 4 3 3 2 1 1 1 1 0 0 1 1 1 1 1
Wind_Direction
139 44 346 2 16 44 73 54 52 58 53 66 119 139 152 161 170 178 196 196 195 196 196 193 194 196 194 195 201 202 200 198 198 200 205 206 206 209 211 212 208 206 206
149 141 148 337 322 329 107 99 81 73 61 93 95 144 177 174 183 186 201 214 213 210 204 203 203 203 203 205 209 213 214 214 211 211 214 216 217 218 219 221 218 216 216
158 158 177 269 281 280 101 84 74 83 95 97 98 162 192 193 192 199 206 214 226 225 216 214 215 213 213 214 216 217 219 221 220 217 217 220 222 224 226 228 226 223 223
170 162 163 276 296 60 101 108 108 102 82 91 183 251 214 216 211 206 206 212 219 232 232 226 223 223 225 226 225 223 225 226 224 221 222 223 225 227 227 231 233 230 228
174 167 167 231 159 117 137 153 109 137 148 158 229 265 253 239 232 218 210 218 218 224 236 246 239 234 235 234 231 229 230 230 227 226 227 229 230 230 230 230 232 233 232
174 165 164 198 153 142 150 133 130 127 151 156 115 24 336 270 239 230 228 223 220 223 228 241 248 250 248 247 242 237 236 236 233 233 234 235 235 234 232 231 232 235 235
182 168 175 183 170 181 195 173 144 132 111 119 93 28 358 354 336 265 249 229 223 224 210 218 228 238 255 260 257 250 247 246 243 241 239 239 238 236 232 229 231 232 235
198 183 177 199 199 182 185 178 163 161 180 145 134 109 357 352 7 3 336 240 240 214 210 219 220 228 238 247 277 269 262 259 256 246 241 237 238 234 236 238 237 234 236
203 200 196 193 199 190 204 206 185 178 187 207 176 156 160 226 315 353 9 13 21 56 257 243 232 236 232 235 256 280 279 279 269 251 231 220 217 224 238 245 242 238 236
254 231 212 199 194 190 206 219 199 191 179 199 203 198 182 168 172 306 349 14 35 38 350 304 278 245 228 228 227 226 278 278 279 273 245 218 217 220 229 244 240 234 232
359 332 233 200 200 197 209 221 211 203 194 194 190 175 164 153 177 181 246 321 17 19 20 355 347 335 218 215 229 79 80 64 55 12 321 274 245 233 213 221 233 237 236
336 340 37 171 192 201 219 228 220 213 210 204 197 186 177 179 186 183 202 217 280 350 18 18 11 355 77 49 64 79 88 81 71 61 53 52 49 54 58 62 51 31 14
305 320 326 160 176 231 226 226 211 226 216 209 206 206 200 202 178 168 170 183 205 323 14 29 12 23 51 56 49 67 73 81 79 73 68 67 66 68 67 63 60 55 46
271 285 165 159 119 84 83 79 70 299 145 206 199 187 183 198 177 174 171 164 167 159 33 4 28 34 44 60 61 72 73 78 79 75 73 73 75 75 73 70 67 64 60
277 16 126 100 63 62 73 100 73 48 76 120 130 125 132 212 190 197 183 179 171 181 211 131 81 47 70 74 67 76 77 77 78 78 76 75 78 79 77 74 71 69 67
57 86 67 71 74 70 77 90 83 58 71 47 71 89 76 38 83 127 176 199 189 167 159 89 80 62 76 85 77 75 75 77 74 76 76 76 77 78 77 74 70 68 67
102 116 110 93 86 79 80 93 87 81 79 55 48 67 46 38 58 59 96 108 110 125 141 111 77 69 80 92 85 81 77 75 77 77 77 76 77 75 73 73 71 68 66
115 118 113 99 90 81 79 95 98 89 91 80 66 68 44 53 54 53 90 106 110 117 140 135 113 87 83 100 95 89 80 79 82 81 79 78 77 75 74 75 74 70 68
107 101 104 101 93 90 92 94 104 102 97 89 79 77 61 71 61 59 81 91 98 104 114 128 115 93 90 95 86 77 72 56 74 80 77 76 75 74 75 75 75 74 73
108 106 102 103 101 96 95 102 104 104 96 81 70 70 71 82 87 86 85 90 102 104 109 117 116 108 101 94 95 90 74 47 45 48 55 62 65 66 66 69 72 73 72
103 104 104 97 98 101 106 119 117 110 103 88 67 57 66 77 82 86 96 104 110 112 116 119 121 117 116 121 130 126 107 74 48 43 46 36 40 46 47 49 59 65 68
91 86 88 93 86 83 93 107 114 106 99 92 77 61 67 66 76 77 84 91 101 118 128 129 135 147 161 158 137 140 130 111 81 30 48 38 40 31 20 28 38 48 60
106 95 92 93 87 72 88 104 106 106 96 84 81 76 74 69 73 80 76 75 74 79 100 138 146 166 172 171 157 152 153 143 158 107 110 79 39 5 340 353 1 359 3
134 127 111 102 94 73 88 104 108 99 91 81 79 88 92 79 78 90 88 76 65 58 67 90 132 148 146 156 163 157 147 118 89 76 72 115 18 314 323 319 323 311 313
131 124 116 110 102 74 86 103 110 99 89 76 67 74 88 85 80 95 95 87 70 52 62 74 84 84 86 100 124 123 120 122 117 120 61 147 273 307 300 300 328 326 310
135 124 111 107 107 89 95 111 115 110 101 87 67 58 66 84 88 104 110 108 93 59 62 67 64 60 70 83 99 127 152 146 136 173 157 172 155 351 283 283 313 323 327